Weather History for Window Rock, AZ

Change the Weather History Date:

Saturday, April 6, 2013

  Actual Average Record
Temperature  
Mean Temperature 52 °F -  
Max Temperature 68 °F 59 °F 78 °F (1989)
Min Temperature 39 °F 27 °F 15 °F (1976)
Degree Days  
Heating Degree Days 12    
Growing Degree Days 2 (Base 50)    
Moisture  
Dew Point 20 °F    
Average Humidity 30    
Maximum Humidity 50    
Minimum Humidity 14    
Precipitation  
Precipitation 0.00 in - - ()
Sea Level Pressure  
Sea Level Pressure 29.81 in    
Wind  
Wind Speed 7 mph (SW)    
Max Wind Speed 21 mph    
Max Gust Speed 28 mph    
Visibility 10 miles    
Events      
Averages and records for this station are not official NWS values.
T = Trace of Precipitation, MM = Missing Value Source: NWS Daily Summary

Daily Weather History Graph

Daily Weather History Graph

Search for Another Location

Airport:

Trip Planner

Search our weather history database for the weather conditions in past years. The results will help you decide how hot, cold, wet, or windy it might be!

Date:

Astronomy

Apr. 06, 2013 Rise Set
Actual Time 6:55 AM MDT 7:42 PM MDT
Civil Twilight 6:29 AM MDT 8:08 PM MDT
Nautical Twilight 5:58 AM MDT 8:38 PM MDT
Astronomical Twilight 5:27 AM MDT 9:10 PM MDT
Moon 4:33 AM MDT (4/6) 4:20 PM MDT (4/6)
Length of Visible Light 13h 38m
Length of Day
12h 47m
Waning Crescent, 14% of the Moon is Illuminated
Apr 6
Waning Crescent
Apr 10
New
Apr 18
First Quarter
Apr 25
Full
May 2
Last Quarter

Hourly Weather History & Observations

Time (MDT) Temp. Windchill Dew Point Humidity Pressure Visibility Wind Dir Wind Speed Gust Speed Precip Events Conditions
12:53 AM 48.0 °F - 21.9 °F 36% 29.82 in 10.0 mi WSW 8.1 mph - N/A   Clear
1:53 AM 39.9 °F 36.7 °F 21.0 °F 47% 29.84 in 10.0 mi SW 4.6 mph - N/A   Clear
2:53 AM 42.1 °F 38.4 °F 21.9 °F 45% 29.81 in 10.0 mi South 5.8 mph - N/A   Clear
3:53 AM 42.1 °F 40.2 °F 21.9 °F 45% 29.80 in 10.0 mi SSE 3.5 mph - N/A   Clear
4:53 AM 42.1 °F 40.2 °F 21.9 °F 45% 29.81 in 10.0 mi SW 3.5 mph - N/A   Clear
5:53 AM 39.0 °F 35.7 °F 21.9 °F 50% 29.84 in 10.0 mi ESE 4.6 mph - N/A   Clear
7:53 AM 43.0 °F - 23.0 °F 45% 29.89 in 10.0 mi Calm Calm - N/A   Clear
8:53 AM 48.0 °F - 23.0 °F 37% 29.91 in 10.0 mi North 3.5 mph - N/A   Clear
9:53 AM 53.1 °F - 23.0 °F 31% 29.87 in 10.0 mi Calm Calm - N/A   Clear
10:53 AM 59.0 °F - 24.1 °F 26% 29.86 in 10.0 mi Variable 3.5 mph - N/A   Clear
11:53 AM 62.1 °F - 21.0 °F 21% 29.85 in 10.0 mi West 9.2 mph 21.9 mph N/A   Clear
12:53 PM 63.0 °F - 19.9 °F 19% 29.80 in 10.0 mi SSW 10.4 mph 18.4 mph N/A   Clear
1:53 PM 64.9 °F - 17.1 °F 16% 29.81 in 10.0 mi SW 9.2 mph 21.9 mph N/A   Clear
2:53 PM 64.9 °F - 16.0 °F 15% 29.78 in 10.0 mi West 9.2 mph 19.6 mph N/A   Clear
3:53 PM 66.9 °F - 16.0 °F 14% 29.75 in 10.0 mi WSW 20.7 mph 27.6 mph N/A   Clear
4:53 PM 66.9 °F - 15.1 °F 14% 29.73 in 10.0 mi West 17.3 mph 24.2 mph N/A   Partly Cloudy
5:53 PM 64.0 °F - 15.1 °F 15% 29.76 in 10.0 mi West 15.0 mph 23.0 mph N/A   Clear
6:53 PM 61.0 °F - 16.0 °F 17% 29.77 in 10.0 mi WSW 15.0 mph - N/A   Clear
7:53 PM 57.0 °F - 16.0 °F 20% 29.78 in 10.0 mi WSW 6.9 mph - N/A   Clear
8:53 PM 52.0 °F - 17.1 °F 25% 29.80 in 10.0 mi SW 4.6 mph - N/A   Clear
9:53 PM 48.9 °F - 18.0 °F 29% 29.80 in 10.0 mi Calm Calm - N/A   Mostly Cloudy
10:53 PM 48.9 °F - 21.0 °F 33% 29.78 in 10.0 mi SW 4.6 mph - N/A   Overcast
11:53 PM 52.0 °F - 24.1 °F 34% 29.76 in 10.0 mi West 8.1 mph - N/A   Overcast